Погода в Силикатном

Россия / Республика Марий Эл     56°22′45″N   48°12′09″E
темп.,
°C
ветер,
м/с
пор.,
м/с
влажн.,
%
обл.,
%
осадки,
мм/ч
давл.,
гПа
погр.,
м
13 июня, вс
вс1300:00+12вюв269996 0.0 1012125
03:00+12вюв249816 0.0 101277
06:00+16юв258940 0.0 1012214
09:00+22ююв456476 0.0 1012848
12:00+25ю56524 0.3 10111642
15:00+25ю685019 0.7 10112085
18:00+22ю497395 0.4 1011812
21:00+17ююв399195 0.4 1012203
14 июня, пн
пн1400:00+16ю31197100 0.1 1012267
03:00+15ю3109878 0.1 1013269
06:00+18ююз378566 0.0 1014318
09:00+23юз46595 0.0 10141121
12:00+26юз464610 0.0 10142025
15:00+27юз564688 0.0 10142293
18:00+21ююз378011 0.8 1015296
21:00+17ююз23950 1.4 101561
15 июня, вт
вт1500:00+16ююз119630 0.3 101514
03:00+15з11955 0.3 101511
06:00+19ююв11895 0.0 1015116
09:00+25вюв225889 0.0 1015906
12:00+27ююв2250100 0.1 10131901
15:00+26ю4455100 0.3 10121147
18:00+21ю377993 0.7 1012256
21:00+18ю2686100 0.8 1012149
16 июня, ср
ср1600:00+16юв229594 0.0 101223
03:00+16юв239788 0.0 101246
06:00+20ююв258187 0.0 1011241
09:00+25ююв3553100 0.0 1010765
12:00+29ююв473863 0.0 10091623
15:00+28ююв454267 0.0 10081418
18:00+26ююз136469 0.0 1008289
21:00+20ссз36865 0.1 1008128
17 июня, чт
чт1700:00+16с4119841 1.5 1009358
03:00+16с51196100 1.5 1011550
06:00+15с5119154 0.0 1013664
09:00+20с695774 0.1 10151077
12:00+22с69431 0.0 10171716
15:00+22с68402 0.0 10182077
18:00+21с48500 0.0 10191510
21:00+15с311790 0.0 1021243